NUDTSAT (42787 NORAD) Tracking and Keplerian Element Data

This shows tracking and keplerian element data for the satellite.

Feedback or suggestion? Click here.




ElementValue
Catalog42787
NameNUDTSAT
Epoch Orbit30112
Epoch Day324.90888236
Epoch Year2022
RAAN7.5294
Inclination97.1821
Eccentricity0.0009089
Argument of Perigee105.301
Mean Anonmoly254.9231
Mean Motion15.41189894
Decay Rate0.0002909
L11 42787U 17036Y 22324.90888236 .00029090 00000+0 70037-3 0 9991
L22 42787 97.1821 7.5294 0009089 105.3010 254.9231 15.41189894301124



Live tracking and technical data element details for NUDTSAT (NORAD 42787). NUDTSAT can be tracked NOW for your location showing map with azimuth and elevation plus other details from your city location.







IsCatalogInMostPopularTable: catalog: 42787, numindb: 597
Update: records affected: 1



GetName: 42787 NUDTSAT

Hit Count: updated at: Mon, 28 Nov 2022 04:26:20 GMT